Kosmos-2419

operational
NORAD ID: 28916 Int'l Des: 2005-050 Owner: KVR/IACG Country: RU
MEOCIRCULAR

Kosmos-2419について

説明を読み込み中...

リアルタイム位置

3D地球を読み込み中...

次回通過

高度履歴

Altitude vs Time

uPlot chart will show altitude changes over time

軌道要素

1 28916U 05050B 25259.60156275 -.00000059 00000-0 00000-0 0 9996
2 28916 65.7417 325.4766 0012847 275.3582 87.9966 2.13106288153437
Epoch: Sep 16, 2025 • Age: 21 hours

現在のステータス

高度 19118.8 km
速度 3.96 km/s
衛星直下点 -48.82°S, 131.12°E
打ち上げ日 Dec 25, 2005
運用期間 19.7 years
タイプ other

技術仕様

分類 Payload
質量 1450.00 kg
乾燥質量 1200.00 kg
総質量 1450.00 kg
長さ 4.00 m
直径 1.50 m
スパン 7.80 m
形状 Cyl + Ant + 2 Pan
製造者 NPOPMR
バスタイプ Uragan
フェーズステータス In Orbit
所有者/国 KVR/IACG/RU

大規模コンステレーション

Loading constellations...